Zurück zum Katalog

DELTA 1 DEB

AktivUNKNOWN
NORAD 27481·DEBRIS·🇺🇸 United States

Gestartet Jul 4, 1968 von Vandenberg Space Force Base

Loading…

Nächste Überflüge (nächste 24 Stunden)

TLE

AktuellSource: Space-Track

Epoche: Sep 6, 2026, 14:04 UTC

1 27481U 68055J   26249.58644068  .00002511  00000-0  36113-2 0  9995
2 27481 120.6793 121.0827 1697337  37.8493 333.0403 11.08674120520994

Verfolge DELTA 1 DEB in Echtzeit mit AllMySat

Download on the App Store